User: anonymous   Login
Location: Unspecified
(45.1733°N, 0.0000°E)
Time: 14:55:25
(UTC+00:00)
Language:

NIMBUS 2 DEB - Orbit

View from above orbital plane
View from above orbital plane
View from above satellite
View from above satellite

Ground track
Ground track

The orbit is defined by the following mean orbital elements,

1 37892U          26088.11114684 +.00000000 +00000-0 +37075-2 0 00006
2 37892 100.5075  43.0592 0053354  25.4718 352.7011 13.48025670    04
Epoch (UTC): 29 March 2026 02:40:03
Eccentricity: 0.0053354
inclination: 100.5075°
perigee height: 1040 km
apogee height: 1119 km
right ascension of ascending node: 43.0592°
argument of perigee: 25.4718°
revolutions per day: 13.48025670
mean anomaly at epoch: 352.7011°

The dashed part of the orbit path shows where the satellite is in the earth's shadow,  

DLR